Station PTIT2 - 8779770 - Port Isabel, TX Image indicating link to RSS feed of recent meteorological observations for station PTIT2


Conditions at PTIT2 as of
(1:48 pm CDT)
1848 GMT on 05/30/2024:
     

Click on the graph icon in the table below to see a time series plot of the last five days of that observation.

5-day plot - Wind Direction Wind Direction (WDIR): SE ( 140 deg true )
5-day plot - Wind Speed Wind Speed (WSPD): 17.1 kts
5-day plot - Wind Gust Wind Gust (GST): 21.0 kts
5-day plot - Atmospheric Pressure Atmospheric Pressure (PRES):29.85 in
5-day plot - Air Temperature Air Temperature (ATMP): 86.2 °F
5-day plot - Water Temperature Water Temperature (WTMP): 83.3 °F
5-day plot - Wind Speed at 10 Meters Wind Speed at 10 meters (WSPD10M): 17.5 kts
5-day plot - Wind Speed at 20 Meters Wind Speed at 20 meters (WSPD20M): 19.4 kts
5-day plot -  Wind Speed, Wind Gust and Atmospheric Pressure Combined plot of Wind Speed, Gust, and Air Pressure
NOS Water Level Observation Network Water Level
Previous observations
TIME
(CDT)
5-day plot - Wind Direction
WDIR
 
5-day plot - Wind Speed
WSPD
kts
5-day plot - Wind Gust
GST
kts
5-day plot - Wave Height
WVHT
ft
5-day plot - Dominant Wave Period
DPD
sec
5-day plot - Average Wave Period
APD
sec
5-day plot - Mean Wave Direction
MWD
 
5-day plot - Atmospheric Pressure
PRES
in
5-day plot - Pressure Tendency
PTDY
in
5-day plot - Air Temperature
ATMP
°F
5-day plot - Water Temperature
WTMP
°F
5-day plot - Dew Point
DEWP
°F
5-day plot - Salinity
SAL
psu
5-day plot - Visibility
VIS
nmi
5-day plot - Tide (above MLLW)
TIDE
ft
2024-05-30 01:42 pm SE 15.9 20.0----29.86- 86.4 83.3----
2024-05-30 01:36 pm SE 15.9 19.0----29.86- 86.2 83.3----
2024-05-30 01:30 pm SE 18.1 20.0----29.86- 86.0 83.3----
2024-05-30 01:24 pm SE 18.1 21.0----29.87- 86.2 83.3----
2024-05-30 01:18 pm SE 15.0 20.0----29.87- 86.2 83.1----
2024-05-30 01:12 pm SE 15.0 18.1----29.87- 86.0 83.1----
2024-05-30 01:06 pm SE 15.0 18.1----29.88- 85.8 83.1----
2024-05-30 01:00 pm SE 15.0 18.1----29.88-0.02 85.8 83.1----
2024-05-30 12:54 pm SE 14.0 17.1----29.88- 86.0 82.9----
2024-05-30 12:48 pm SE 15.0 19.0----29.88-- 82.9----
2024-05-30 12:42 pm SE 15.9 19.0----29.88-- 82.9----
2024-05-30 12:36 pm SE 15.0 20.0----29.89-- 82.9----
2024-05-30 12:30 pm SE 15.0 20.0----29.89- 85.8 82.9----
2024-05-30 12:24 pm SE 15.0 20.0----29.89- 86.0 83.1----
2024-05-30 12:18 pm SE 17.1 19.0----29.89- 85.6 83.1----
2024-05-30 12:12 pm SE 15.0 22.0----29.89- 85.6 83.1----
2024-05-30 12:06 pm SE 15.9 21.0----29.89- 85.3 83.1----
2024-05-30 12:00 pm SE 18.1 21.0----29.89+0.00 85.3 83.1----
2024-05-30 11:54 am SE 19.0 22.0----29.89- 85.3 83.1----
2024-05-30 11:48 am SE 17.1 21.0----29.90- 85.1 82.9----
2024-05-30 11:42 am SE 17.1 20.0----29.90- 85.3 82.9----
2024-05-30 11:36 am SE 15.0 20.0----29.90- 85.3 82.9----
2024-05-30 11:30 am SE 15.9 19.0----29.90- 85.3 82.8----
2024-05-30 11:24 amSSE 14.0 18.1----29.90- 85.8 82.8----
2024-05-30 11:18 am SE 15.9 17.1----29.90- 85.5 82.8----
2024-05-30 11:12 am SE 15.0 19.0----29.90- 85.6 82.8----
2024-05-30 11:06 amSSE 15.0 19.0----29.91- 85.5 82.8----
2024-05-30 11:00 am SE 15.0 17.1----29.91+0.01 85.6 82.8----
2024-05-30 10:54 amSSE 13.0 17.1----29.91- 86.5 82.8----
2024-05-30 10:48 amSSE 11.1 15.0----29.91-- 82.8----
2024-05-30 10:42 am SE 15.0 18.1----29.91-- 82.8----
2024-05-30 10:36 am SE 14.0 17.1----29.91-- 82.8----
2024-05-30 10:30 am SE 14.0 17.1----29.91- 85.3 82.8----
2024-05-30 10:24 am SE 13.0 15.9----29.91- 85.3 82.8----
2024-05-30 10:18 amSSE 13.0 17.1----29.91- 84.9 82.8----
2024-05-30 10:12 am SE 13.0 15.9----29.91- 84.7 82.8----
2024-05-30 10:06 am SE 13.0 15.0----29.90- 84.4 82.8----
2024-05-30 10:00 am SE 13.0 15.9----29.90+0.02 84.6 82.8----
2024-05-30 09:54 am SE 12.0 15.0----29.91- 84.4 82.8----
2024-05-30 09:48 am SE 12.0 15.0----29.91- 84.0 82.8----
2024-05-30 09:42 am SE 13.0 17.1----29.90- 83.8 82.8----
2024-05-30 09:36 amSSE 12.0 17.1----29.90- 84.0 82.8----
2024-05-30 09:30 am SE 14.0 17.1----29.90- 83.7 82.8----
2024-05-30 09:24 am SE 12.0 15.9----29.90- 83.5 82.8----
2024-05-30 09:18 am SE 13.0 15.0----29.90- 83.5 82.8----
2024-05-30 09:12 am SE 12.0 15.9----29.90- 83.5 82.8----
2024-05-30 09:06 am SE 13.0 15.9----29.90- 83.5 82.8----
2024-05-30 09:00 am SE 13.0 15.9----29.90+0.03 83.3 82.8----
2024-05-30 08:54 amSSE 13.0 15.9----29.89- 83.1 82.8----
2024-05-30 08:48 amSSE 12.0 14.0----29.89- 83.1 82.8----
2024-05-30 08:42 amSSE 12.0 14.0----29.89- 82.9 82.8----
2024-05-30 08:36 amSSE 11.1 14.0----29.89- 82.8 82.8----
2024-05-30 08:30 am SE 11.1 13.0----29.89- 82.6 82.8----
2024-05-30 08:24 am SE 11.1 13.0----29.89- 82.6 82.8----
2024-05-30 08:18 am SE 11.1 13.0----29.89- 82.2 82.8----
2024-05-30 08:12 am SE 11.1 14.0----29.89- 82.0 82.8----
2024-05-30 08:06 am SE 11.1 12.0----29.89- 81.9 82.8----
2024-05-30 08:00 amESE 8.9 11.1----29.89- 81.9 82.8----
2024-05-30 07:54 am SE 8.9 11.1----29.89- 81.9 82.9----
2024-05-30 07:48 amESE 8.0 9.9----29.89- 81.7 82.9----
2024-05-30 07:42 amESE 7.0 8.9----29.89- 81.7 82.9----
2024-05-30 07:36 amESE 6.0 8.0----29.89- 81.7 82.9----
2024-05-30 07:30 amESE 6.0 9.9----29.88- 81.5 82.9----
2024-05-30 07:24 amESE 7.0 8.0----29.88- 81.5 82.9----
2024-05-30 07:18 am SE 7.0 8.9----29.88- 81.5 82.9----
2024-05-30 07:12 am SE 8.0 9.9----29.88- 81.3 82.9----
2024-05-30 07:06 am SE 8.0 8.9----29.88- 81.3 82.9----
2024-05-30 07:00 am SE 6.0 8.0----29.88- 81.3 83.1----
2024-05-30 06:54 am SE 7.0 8.9----29.88- 81.5 83.1----
2024-05-30 06:48 am SE 7.0 8.9----29.88-- 83.1----
2024-05-30 06:42 am SE 7.0 8.9----29.87-- 83.1----
2024-05-30 06:36 am SE 8.0 11.1----29.87-- 83.1----
2024-05-30 06:30 am SE 7.0 12.0----29.88- 81.7 83.1----
2024-05-30 06:24 amSSE 8.0 12.0----29.88- 81.7 83.1----
2024-05-30 06:18 am SE 8.9 11.1----29.88- 81.5 83.1----
2024-05-30 06:12 amSSE 9.9 12.0----29.88- 81.5 83.3----
2024-05-30 06:06 amSSE 11.1 13.0----29.87- 81.5 83.3----
2024-05-30 06:00 amSSE 11.1 13.0----29.87- 81.5 83.3----
2024-05-30 05:54 amSSE 11.1 13.0----29.87- 81.5 83.3----
2024-05-30 05:48 amSSE 8.9 12.0----29.87- 81.5 83.3----
2024-05-30 05:42 amSSE 9.9 12.0----29.87- 81.5 83.3----
2024-05-30 05:36 amSSE 8.0 12.0----29.88- 81.5 83.3----
2024-05-30 05:30 amSSE 8.9 13.0----29.88- 81.5 83.3----
2024-05-30 05:24 amSSE 12.0 14.0----29.88- 81.5 83.3----
2024-05-30 05:18 amSSE 9.9 13.0----29.88- 81.7 83.3----
2024-05-30 05:12 amSSE 11.1 14.0----29.88- 81.7 83.3----
2024-05-30 05:06 amSSE 9.9 12.0----29.88- 81.7 83.5----
2024-05-30 05:00 amSSE 9.9 14.0----29.88-0.03 81.7 83.5----
2024-05-30 04:54 amSSE 9.9 12.0----29.88- 81.7 83.5----
2024-05-30 04:48 amSSE 9.9 12.0----29.88- 81.7 83.5----
2024-05-30 04:42 amSSE 9.9 13.0----29.88- 81.7 83.5----
2024-05-30 04:36 amSSE 9.9 13.0----29.88- 81.7 83.5----
2024-05-30 04:30 amSSE 8.9 15.9----29.88- 81.9 83.5----
2024-05-30 04:24 amSSE 9.9 14.0----29.88- 81.7 83.5----
2024-05-30 04:18 amSSE 12.0 17.1----29.87- 81.7 83.5----
2024-05-30 04:12 amSSE 11.1 14.0----29.87- 81.7 83.5----
2024-05-30 04:06 amSSE 12.0 15.0----29.88- 81.7 83.5----
2024-05-30 04:00 amSSE 11.1 15.0----29.88-0.05 81.7 83.5----
2024-05-30 03:54 amSSE 12.0 15.9----29.88- 81.7 83.5----
2024-05-30 03:48 amSSE 12.0 15.9----29.88-- 83.5----
2024-05-30 03:42 amSSE 13.0 15.9----29.88-- 83.5----
2024-05-30 03:36 amSSE 13.0 15.9----29.88-- 83.5----
2024-05-30 03:30 amSSE 12.0 15.9----29.89- 81.7 83.5----
2024-05-30 03:24 amSSE 12.0 15.0----29.89- 81.7 83.5----
2024-05-30 03:18 amSSE 11.1 15.9----29.89- 81.7 83.5----
2024-05-30 03:12 am SE 12.0 15.9----29.89- 81.5 83.5----
2024-05-30 03:06 am SE 11.1 13.0----29.89- 81.7 83.5----
2024-05-30 03:00 am SE 11.1 14.0----29.89-0.04 81.7 83.5----
2024-05-30 02:54 am SE 12.0 15.9----29.89- 81.9 83.5----
2024-05-30 02:48 am SE 11.1 15.9----29.90-- 83.5----
2024-05-30 02:42 am SE 12.0 15.9----29.90-- 83.7----
2024-05-30 02:36 am SE 12.0 15.9----29.90-- 83.7----
2024-05-30 02:30 am SE 12.0 15.0----29.90- 81.9 83.7----
2024-05-30 02:24 am SE 11.1 15.0----29.90- 81.7 83.7----
2024-05-30 02:18 am SE 9.9 17.1----29.91- 81.7 83.7----
2024-05-30 02:12 am SE 13.0 15.9----29.91- 81.7 83.7----
2024-05-30 02:06 am SE 9.9 14.0----29.91- 81.9 83.7----
2024-05-30 02:00 am SE 9.9 14.0----29.91-0.01 81.9 83.7----
2024-05-30 01:54 am SE 11.1 15.9----29.91- 81.9 83.7----
2024-05-30 01:48 am SE 14.0 17.1----29.92- 81.9 83.7----
2024-05-30 01:42 am SE 13.0 17.1----29.92- 81.9 83.7----
2024-05-30 01:36 am SE 14.0 15.9----29.92- 81.9 83.7----
2024-05-30 01:30 am SE 12.0 15.9----29.92- 81.9 83.7----
2024-05-30 01:24 am SE 11.1 13.0----29.92- 81.9 83.7----
2024-05-30 01:18 amESE 9.9 13.0----29.93- 81.9 83.7----
2024-05-30 01:12 amESE 11.1 14.0----29.93- 81.9 83.7----
2024-05-30 01:06 amESE 8.9 12.0----29.93- 81.9 83.7----
2024-05-30 01:00 amESE 8.0 11.1----29.93+0.04 81.9 83.7----
2024-05-30 12:54 amESE 7.0 12.0----29.93- 81.9 83.7----
2024-05-30 12:48 am SE 8.9 12.0----29.93-- 83.7----
2024-05-30 12:42 am SE 8.0 11.1----29.93-- 83.7----
2024-05-30 12:36 am SE 8.9 12.0----29.93-- 83.7----
2024-05-30 12:30 am SE 8.0 11.1----29.93- 81.9 83.7----
2024-05-30 12:24 am SE 8.0 9.9----29.93- 81.9 83.7----
2024-05-30 12:18 amESE 7.0 12.0----29.93- 81.9 83.7----
2024-05-30 12:12 amESE 8.0 11.1----29.93- 81.9 83.7----
2024-05-30 12:06 amESE 7.0 11.1----29.94- 81.9 83.7----
2024-05-30 12:00 amESE 8.0 9.9----29.94+0.06 81.9 83.7----
2024-05-29 11:54 pmESE 8.0 11.1----29.94- 81.9 83.7----
2024-05-29 11:48 pmESE 8.0 11.1----29.94-- 83.7----
2024-05-29 11:42 pmESE 8.9 13.0----29.94-- 83.7----
2024-05-29 11:36 pmESE 8.9 11.1----29.93-- 83.7----
2024-05-29 11:30 pmESE 8.0 11.1----29.93- 82.0 83.7----
2024-05-29 11:24 pmESE 8.0 11.1----29.93- 82.0 83.7----
2024-05-29 11:18 pmESE 8.0 11.1----29.93- 82.0 83.7----
2024-05-29 11:12 pmESE 8.9 11.1----29.93- 82.0 83.7----
2024-05-29 11:06 pmESE 8.9 12.0----29.93- 82.0 83.7----
2024-05-29 11:00 pmESE 8.9 12.0----29.93+0.05 82.0 83.7----
2024-05-29 10:54 pmESE 8.9 11.1----29.93- 82.2 83.7----
2024-05-29 10:48 pmESE 8.9 13.0----29.93- 82.2 83.7----
2024-05-29 10:42 pmESE 8.9 13.0----29.92- 82.2 83.7----
2024-05-29 10:36 pmESE 9.9 13.0----29.92- 82.0 83.7----
2024-05-29 10:30 pm SE 9.9 13.0----29.91- 82.2 83.7----
2024-05-29 10:24 pmESE 9.9 14.0----29.91- 82.2 83.7----
2024-05-29 10:18 pmESE 9.9 14.0----29.91- 82.2 83.7----
2024-05-29 10:12 pmESE 9.9 14.0----29.90- 82.2 83.7----
2024-05-29 10:06 pmESE 9.9 14.0----29.90- 82.2 83.7----
2024-05-29 10:00 pmESE 9.9 15.0----29.90+0.02 82.2 83.7----
2024-05-29 09:54 pmESE 9.9 15.0----29.90- 82.2 83.7----
2024-05-29 09:48 pmESE 12.0 18.1----29.89- 82.2 83.7----
2024-05-29 09:42 pmESE 11.1 17.1----29.89- 82.2 83.7----
2024-05-29 09:36 pmESE 11.1 15.9----29.89- 82.4 83.7----
2024-05-29 09:30 pmESE 13.0 15.9----29.89- 82.4 83.7----
2024-05-29 09:24 pmESE 12.0 15.0----29.89- 82.6 83.7----
2024-05-29 09:18 pmESE 9.9 15.9----29.88- 82.4 83.7----
2024-05-29 09:12 pmESE 11.1 15.0----29.88- 82.4 83.7----
2024-05-29 09:06 pmESE 12.0 15.0----29.88- 82.4 83.7----
2024-05-29 09:00 pmESE 12.0 15.9----29.88+0.00 82.4 83.7----
2024-05-29 08:54 pmESE 11.1 14.0----29.88- 82.6 83.7----
2024-05-29 08:48 pmESE 11.1 15.0----29.88- 82.6 83.7----
2024-05-29 08:42 pmESE 11.1 15.0----29.88- 82.6 83.7----
2024-05-29 08:36 pmESE 9.9 15.0----29.88- 82.6 83.7----
2024-05-29 08:30 pmESE 12.0 15.0----29.88- 82.6 83.7----
2024-05-29 08:24 pmESE 9.9 14.0----29.88- 82.8 83.7----
2024-05-29 08:18 pmESE 9.9 13.0----29.88- 82.9 83.7----
2024-05-29 08:12 pmESE 11.1 15.0----29.88- 83.1 83.7----
2024-05-29 08:06 pmESE 9.9 15.0----29.88- 83.1 83.7----
2024-05-29 08:00 pmESE 9.9 15.9----29.88-0.01 83.3 83.7----
2024-05-29 07:54 pmESE 12.0 15.0----29.88- 83.3 83.7----
2024-05-29 07:48 pmESE 12.0 15.9----29.88- 83.5 83.7----
2024-05-29 07:42 pmESE 12.0 15.9----29.88- 83.7 83.7----
2024-05-29 07:36 pmESE 11.1 15.9----29.88- 83.8 83.7----
2024-05-29 07:30 pmESE 12.0 17.1----29.88- 83.8 83.7----
2024-05-29 07:24 pmESE 12.0 17.1----29.88- 84.0 83.5----
2024-05-29 07:18 pmESE 11.1 15.9----29.88- 84.2 83.5----
2024-05-29 07:12 pmESE 12.0 15.9----29.88- 84.2 83.5----
2024-05-29 07:06 pmESE 12.0 17.1----29.88- 84.2 83.5----
2024-05-29 07:00 pmESE 11.1 17.1----29.88-0.03 84.2 83.5----
2024-05-29 06:54 pmESE 12.0 17.1----29.88- 84.6 83.5----
2024-05-29 06:48 pmESE 11.1 15.0----29.88-- 83.3----
2024-05-29 06:42 pmESE 12.0 17.1----29.88-- 83.1----
2024-05-29 06:36 pm E 13.0 18.1----29.88-- 83.1----
2024-05-29 06:30 pmESE 12.0 15.9----29.88- 84.7 83.1----
2024-05-29 06:24 pmESE 12.0 17.1----29.88- 84.9 83.1----
2024-05-29 06:18 pm E 13.0 17.1----29.88- 84.9 83.1----
2024-05-29 06:12 pm E 13.0 18.1----29.88- 84.9 83.1----
2024-05-29 06:06 pm E 12.0 15.0----29.88- 84.9 83.1----
2024-05-29 06:00 pmESE 12.0 15.9----29.88-0.05 85.1 83.1----
2024-05-29 05:54 pmESE 12.0 17.1----29.88- 85.3 83.1----
2024-05-29 05:48 pm E 14.0 17.1----29.88- 85.1 83.1----
2024-05-29 05:42 pmESE 12.0 17.1----29.89- 85.5 83.1----
2024-05-29 05:36 pmESE 11.1 15.9----29.89- 85.3 83.1----
2024-05-29 05:30 pmESE 11.1 17.1----29.89- 85.5 83.1----
2024-05-29 05:24 pmESE 9.9 15.9----29.89- 85.5 82.9----
2024-05-29 05:18 pm E 12.0 17.1----29.89- 85.5 82.9----
2024-05-29 05:12 pmESE 11.1 15.0----29.89- 85.6 82.9----
2024-05-29 05:06 pmESE 11.1 15.0----29.89- 85.6 82.9----
2024-05-29 05:00 pmESE 11.1 15.9----29.89-0.06 85.8 82.9----
2024-05-29 04:54 pmESE 12.0 15.0----29.89- 85.8 82.9----
2024-05-29 04:48 pm SE 12.0 15.9----29.89- 86.0 82.9----
2024-05-29 04:42 pm SE 14.0 19.0----29.89- 85.5 82.9----
2024-05-29 04:36 pmESE 11.1 15.0----29.89- 85.5 82.9----
2024-05-29 04:30 pmESE 11.1 14.0----29.89- 85.5 82.9----
2024-05-29 04:24 pmESE 12.0 15.0----29.90- 85.5 82.9----
2024-05-29 04:18 pm SE 12.0 15.9----29.90- 85.5 82.9----
2024-05-29 04:12 pm SE 13.0 18.1----29.90- 85.3 82.9----
2024-05-29 04:06 pm SE 12.0 17.1----29.90- 85.3 82.9----
2024-05-29 04:00 pm SE 11.1 14.0----29.91-0.08 85.8 82.8----
2024-05-29 03:54 pm SE 13.0 17.1----29.91- 85.3 82.8----
2024-05-29 03:48 pm SE 11.1 14.0----29.91-- 82.8----
2024-05-29 03:42 pm SE 11.1 14.0----29.91-- 82.6----
2024-05-29 03:36 pm SE 11.1 13.0----29.91-- 82.6----
2024-05-29 03:30 pm SE 12.0 14.0----29.92- 85.5 82.6----
2024-05-29 03:24 pmESE 11.1 15.0----29.92- 85.8 82.6----
2024-05-29 03:18 pm SE 12.0 15.9----29.92- 86.2 82.6----
2024-05-29 03:12 pmESE 11.1 15.9----29.92- 86.0 82.6----
2024-05-29 03:06 pm SE 13.0 15.9----29.92- 86.0 82.6----
2024-05-29 03:00 pm SE 12.0 15.0----29.93-0.04 86.0 82.6----
2024-05-29 02:54 pm SE 13.0 15.9----29.93- 85.8 82.6----
2024-05-29 02:48 pm SE 12.0 15.9----29.93- 85.8 82.6----
2024-05-29 02:42 pmSSE 14.0 15.9----29.93- 86.2 82.6----
2024-05-29 02:36 pmSSE 12.0 15.9----29.93- 86.0 82.6----
2024-05-29 02:30 pm SE 12.0 15.0----29.94- 85.6 82.6----
2024-05-29 02:24 pmSSE 12.0 15.0----29.94- 85.5 82.6----
2024-05-29 02:18 pm SE 13.0 18.1----29.94- 85.5 82.8----
2024-05-29 02:12 pmSSE 15.0 18.1----29.95- 85.3 82.8----
2024-05-29 02:06 pmSSE 12.0 17.1----29.94- 85.5 82.8----
2024-05-29 02:00 pm SE 12.0 17.1----29.95- 85.3 82.9----
2024-05-29 01:54 pm SE 14.0 17.1----29.95- 85.6 82.9----